AFR34TG LFKF-LFRB

Flight info

Callsign AFR34TG
Flight time N/A
Altitude 30000
Route LONSU M622 MERLU A3 OMARD DCT STP/N0445F290 DCT PADKO/N0444F300 DCT FJR DCT GAI DCT SECHE DCT UVELI DCT CNA DCT MANAK UT183 TIRAV UN490 TERPO UM616 KORER DCT ERCOZ
Aircraft E170/M-SDE3GILORVW/S

Departure

Time N/A
Airport Figari Sud-Corse Airport (LFKF)

Arrival

Time 2026-05-04 18:47
Airport Brest Bretagne airport (LFRB)
Time Latitude Longitude Altitude Speed Heading
2026-05-04 17:55 45.00160 0.13888 29939 ft 474 kts 331°
2026-05-04 17:55 45.03146 0.11868 29943 ft 474 kts 331°
2026-05-04 17:55 45.09062 0.07860 29946 ft 474 kts 331°
2026-05-04 17:56 45.15029 0.03808 29950 ft 475 kts 332°
2026-05-04 17:56 45.20966 -0.00233 29948 ft 475 kts 332°
2026-05-04 17:57 45.26944 -0.04311 29945 ft 475 kts 332°
2026-05-04 17:57 45.32875 -0.08367 29950 ft 475 kts 332°
2026-05-04 17:58 45.38854 -0.12465 29954 ft 475 kts 332°
2026-05-04 17:58 45.44784 -0.16538 29948 ft 475 kts 331°
2026-05-04 17:59 45.50759 -0.20654 29951 ft 476 kts 331°
2026-05-04 18:00 45.59674 -0.26812 29940 ft 475 kts 332°
2026-05-04 18:00 45.65533 -0.31207 29950 ft 473 kts 326°
2026-05-04 18:01 45.70828 -0.36655 29947 ft 470 kts 319°
2026-05-04 18:01 45.75977 -0.42439 29946 ft 469 kts 318°
2026-05-04 18:02 45.83646 -0.51117 29969 ft 470 kts 318°
2026-05-04 18:02 45.88787 -0.56948 29955 ft 470 kts 318°
2026-05-04 18:03 45.93930 -0.62797 29955 ft 471 kts 318°
2026-05-04 18:03 45.99045 -0.68627 29953 ft 471 kts 318°
2026-05-04 18:04 46.04191 -0.74505 29959 ft 472 kts 318°
2026-05-04 18:05 46.11892 -0.83330 29952 ft 472 kts 318°
2026-05-04 18:05 46.17043 -0.89252 29957 ft 472 kts 318°
2026-05-04 18:06 46.24758 -0.98148 29952 ft 473 kts 317°
2026-05-04 18:06 46.29884 -1.04078 29945 ft 474 kts 317°
2026-05-04 18:07 46.35039 -1.10056 29948 ft 474 kts 317°
2026-05-04 18:07 46.40155 -1.16004 29956 ft 474 kts 317°
2026-05-04 18:08 46.45310 -1.22010 29961 ft 474 kts 317°
2026-05-04 18:08 46.50433 -1.27997 29974 ft 475 kts 317°
2026-05-04 18:09 46.60957 -1.39597 29966 ft 478 kts 326°
2026-05-04 18:10 46.66904 -1.44044 29965 ft 480 kts 332°
2026-05-04 18:10 46.72926 -1.48321 29971 ft 480 kts 332°
2026-05-04 18:11 46.78908 -1.52571 29966 ft 480 kts 332°
2026-05-04 18:11 46.84919 -1.56854 29964 ft 480 kts 332°
2026-05-04 18:12 46.90897 -1.61125 29957 ft 480 kts 332°
2026-05-04 18:12 46.96902 -1.65426 29962 ft 481 kts 332°
2026-05-04 18:13 47.02927 -1.69753 29965 ft 480 kts 332°
2026-05-04 18:14 47.11896 -1.76214 29971 ft 481 kts 332°
2026-05-04 18:14 47.17917 -1.80565 29963 ft 481 kts 332°
2026-05-04 18:15 47.29897 -1.89255 29971 ft 480 kts 332°
2026-05-04 18:16 47.35534 -1.94415 29961 ft 474 kts 316°
2026-05-04 18:16 47.39967 -2.01454 29976 ft 469 kts 307°
2026-05-04 18:17 47.46384 -2.12317 29973 ft 468 kts 307°
2026-05-04 18:17 47.50655 -2.19568 28831 ft 462 kts 307°
2026-05-04 18:18 47.52752 -2.23134 27993 ft 455 kts 307°
2026-05-04 18:18 47.54814 -2.26647 27192 ft 447 kts 308°
2026-05-04 18:18 47.56807 -2.30049 26423 ft 439 kts 308°
2026-05-04 18:18 47.58800 -2.33453 25653 ft 432 kts 308°
2026-05-04 18:19 47.62675 -2.40085 24198 ft 419 kts 308°
2026-05-04 18:19 47.64568 -2.43331 23467 ft 413 kts 309°
2026-05-04 18:19 47.66421 -2.46551 22619 ft 406 kts 308°
2026-05-04 18:20 47.68250 -2.49665 21804 ft 402 kts 310°
2026-05-04 18:20 47.70101 -2.52757 21006 ft 397 kts 310°
2026-05-04 18:20 47.71930 -2.55811 20228 ft 392 kts 310°
2026-05-04 18:20 47.73714 -2.58789 19490 ft 387 kts 310°
2026-05-04 18:21 47.75495 -2.61767 18766 ft 383 kts 310°
2026-05-04 18:21 47.77259 -2.64719 18040 ft 379 kts 310°
2026-05-04 18:21 47.79001 -2.67639 17268 ft 374 kts 310°
2026-05-04 18:21 47.80717 -2.70519 16555 ft 368 kts 310°
2026-05-04 18:22 47.82386 -2.73322 15862 ft 363 kts 310°
2026-05-04 18:22 47.84052 -2.76124 15163 ft 359 kts 311°
2026-05-04 18:22 47.85700 -2.78898 14493 ft 354 kts 311°
2026-05-04 18:22 47.87322 -2.81632 13835 ft 350 kts 311°
2026-05-04 18:23 47.88921 -2.84330 13129 ft 346 kts 311°
2026-05-04 18:23 47.90492 -2.86983 12426 ft 342 kts 311°
2026-05-04 18:23 47.92057 -2.89627 11733 ft 338 kts 311°
2026-05-04 18:23 47.93606 -2.92249 11256 ft 329 kts 311°
2026-05-04 18:24 47.95091 -2.94764 10985 ft 315 kts 311°
2026-05-04 18:24 47.96511 -2.97171 10720 ft 303 kts 311°
2026-05-04 18:24 47.97872 -2.99481 10317 ft 297 kts 311°
2026-05-04 18:24 47.99240 -3.01804 10083 ft 302 kts 311°
2026-05-04 18:25 48.00617 -3.04145 10018 ft 296 kts 311°
2026-05-04 18:25 48.01967 -3.06440 9982 ft 293 kts 311°
2026-05-04 18:25 48.03317 -3.08740 9976 ft 294 kts 311°
2026-05-04 18:25 48.04655 -3.11019 9971 ft 294 kts 311°
2026-05-04 18:26 48.06010 -3.13331 9977 ft 294 kts 311°
2026-05-04 18:26 48.07360 -3.15635 9982 ft 295 kts 311°
2026-05-04 18:26 48.08701 -3.17925 9983 ft 295 kts 311°
2026-05-04 18:26 48.10044 -3.20224 9640 ft 292 kts 311°
2026-05-04 18:27 48.11383 -3.22516 9138 ft 291 kts 311°
2026-05-04 18:27 48.12714 -3.24793 8661 ft 289 kts 311°
2026-05-04 18:27 48.14030 -3.27051 8206 ft 287 kts 311°
2026-05-04 18:27 48.15336 -3.29291 7742 ft 284 kts 311°
2026-05-04 18:28 48.16618 -3.31495 7295 ft 282 kts 311°
2026-05-04 18:28 48.17908 -3.33711 7077 ft 282 kts 311°
2026-05-04 18:28 48.19189 -3.35916 7018 ft 280 kts 311°
2026-05-04 18:28 48.20473 -3.38126 6986 ft 279 kts 311°
2026-05-04 18:29 48.21736 -3.40299 6996 ft 280 kts 311°
2026-05-04 18:29 48.23019 -3.42515 7019 ft 280 kts 311°
2026-05-04 18:29 48.24299 -3.44725 7009 ft 279 kts 311°
2026-05-04 18:29 48.25576 -3.46929 6990 ft 279 kts 311°
2026-05-04 18:30 48.28114 -3.51318 6980 ft 279 kts 311°
2026-05-04 18:30 48.29398 -3.53539 6988 ft 280 kts 311°
2026-05-04 18:30 48.30656 -3.55720 6987 ft 280 kts 311°
2026-05-04 18:31 48.31727 -3.58159 6974 ft 280 kts 291°
2026-05-04 18:31 48.32328 -3.60940 6999 ft 280 kts 285°
2026-05-04 18:31 48.32836 -3.63775 6990 ft 280 kts 284°
2026-05-04 18:31 48.33307 -3.66577 6983 ft 279 kts 284°
2026-05-04 18:32 48.33808 -3.69416 6991 ft 280 kts 287°
2026-05-04 18:32 48.34416 -3.72198 6992 ft 280 kts 288°
2026-05-04 18:32 48.35039 -3.74943 6988 ft 280 kts 289°
2026-05-04 18:32 48.35674 -3.77713 6992 ft 279 kts 289°
2026-05-04 18:33 48.36308 -3.80486 6992 ft 280 kts 289°
2026-05-04 18:33 48.36932 -3.83222 6998 ft 279 kts 289°
2026-05-04 18:33 48.37564 -3.85995 7002 ft 280 kts 289°
2026-05-04 18:33 48.38194 -3.88768 6984 ft 279 kts 289°
2026-05-04 18:34 48.38819 -3.91530 6998 ft 279 kts 289°
2026-05-04 18:34 48.39447 -3.94296 6996 ft 279 kts 289°
2026-05-04 18:34 48.40068 -3.97040 6984 ft 279 kts 289°
2026-05-04 18:34 48.40694 -3.99806 6993 ft 279 kts 289°
2026-05-04 18:35 48.41111 -4.01658 6997 ft 279 kts 288°
2026-05-04 18:35 48.41733 -4.04412 6725 ft 277 kts 288°
2026-05-04 18:35 48.42550 -4.08046 6149 ft 274 kts 289°
2026-05-04 18:35 48.43162 -4.10770 5699 ft 272 kts 289°
2026-05-04 18:36 48.43566 -4.12568 5412 ft 271 kts 289°
2026-05-04 18:36 48.44167 -4.15247 4985 ft 269 kts 289°
2026-05-04 18:36 48.44766 -4.17919 4549 ft 267 kts 289°
2026-05-04 18:36 48.45349 -4.20528 4155 ft 265 kts 289°
2026-05-04 18:37 48.45941 -4.23172 4054 ft 266 kts 290°
2026-05-04 18:37 48.46532 -4.25816 4014 ft 265 kts 290°
2026-05-04 18:37 48.47122 -4.28464 3996 ft 266 kts 290°
2026-05-04 18:37 48.47683 -4.31116 3983 ft 266 kts 283°
2026-05-04 18:38 48.47632 -4.33856 3929 ft 265 kts 260°
2026-05-04 18:38 48.47068 -4.36515 3637 ft 265 kts 255°
2026-05-04 18:38 48.47115 -4.39246 3258 ft 264 kts 291°
2026-05-04 18:38 48.47891 -4.41731 3325 ft 263 kts 297°
2026-05-04 18:39 48.48673 -4.44245 3429 ft 262 kts 295°
2026-05-04 18:39 48.49286 -4.46810 3734 ft 266 kts 288°
2026-05-04 18:39 48.49704 -4.49531 3803 ft 268 kts 281°
2026-05-04 18:39 48.50026 -4.52481 2427 ft 295 kts 280°
2026-05-04 18:40 48.50280 -4.55398 2610 ft 264 kts 276°
2026-05-04 18:40 48.50218 -4.57982 2847 ft 225 kts 264°
2026-05-04 18:40 48.49987 -4.60158 2877 ft 203 kts 260°
2026-05-04 18:40 48.49624 -4.62115 2751 ft 180 kts 244°
2026-05-04 18:41 48.49096 -4.63696 2486 ft 155 kts 243°
2026-05-04 18:41 48.48444 -4.64953 1951 ft 171 kts 229°
2026-05-04 18:41 48.47673 -4.66164 1980 ft 149 kts 220°
2026-05-04 18:41 48.46786 -4.67000 2082 ft 151 kts 205°
2026-05-04 18:42 48.45796 -4.67498 2116 ft 147 kts 190°
2026-05-04 18:42 48.44783 -4.67714 2228 ft 148 kts 184°
2026-05-04 18:42 48.43756 -4.67663 2363 ft 147 kts 156°
2026-05-04 18:42 48.42894 -4.67014 2837 ft 141 kts 146°
2026-05-04 18:43 48.42093 -4.66068 3131 ft 150 kts 133°
2026-05-04 18:43 48.41461 -4.64870 3154 ft 147 kts 120°
2026-05-04 18:43 48.41105 -4.63464 3132 ft 142 kts 101°
2026-05-04 18:43 48.40942 -4.61983 3030 ft 146 kts 94°
2026-05-04 18:44 48.40883 -4.60435 2540 ft 154 kts 88°
2026-05-04 18:44 48.41059 -4.59396 2188 ft 155 kts 57°
2026-05-04 18:44 48.41474 -4.57700 2366 ft 108 kts 78°
2026-05-04 18:44 48.41606 -4.56638 2113 ft 121 kts 76°
2026-05-04 18:45 48.41830 -4.55360 2128 ft 127 kts 72°
2026-05-04 18:45 48.42121 -4.54023 2272 ft 141 kts 70°
2026-05-04 18:45 48.42420 -4.52604 1910 ft 140 kts 70°
2026-05-04 18:45 48.42712 -4.51230 1582 ft 137 kts 72°
2026-05-04 18:46 48.42998 -4.49863 1199 ft 135 kts 70°
2026-05-04 18:46 48.43284 -4.48526 1025 ft 136 kts 70°
2026-05-04 18:46 48.43581 -4.47184 927 ft 140 kts 69°
2026-05-04 18:46 48.43899 -4.45803 640 ft 138 kts 70°
2026-05-04 18:47 48.44130 -4.44764 473 ft 133 kts 66°
2026-05-04 18:47 48.44223 -4.44377 430 ft 133 kts 68°
2026-05-04 18:47 48.44518 -4.43042 299 ft 130 kts 69°
2026-05-04 18:47 48.44694 -4.42245 323 ft 30 kts 83°
2026-05-04 18:48 48.44677 -4.42163 328 ft 1 kts 147°
2026-05-04 18:48 48.44654 -4.42145 329 ft 7 kts 153°
2026-05-04 18:48 48.44610 -4.42118 328 ft 8 kts 161°
2026-05-04 18:48 48.44505 -4.42077 330 ft 21 kts 162°
2026-05-04 18:49 48.44430 -4.42038 328 ft 3 kts 161°
2026-05-04 18:49 48.44428 -4.42037 330 ft 0 kts 161°